Weather History for Kirksville, MO

Change the Weather History Date:

Tuesday, January 29, 2013

  Actual Average Record
Temperature  
Mean Temperature 49 °F 27 °F  
Max Temperature 63 °F 36 °F 63 °F (2013)
Min Temperature 34 °F 17 °F -17 °F (1966)
Degree Days  
Heating Degree Days 16 38  
Month to date heating degree days 1045 1130  
Since 1 July heating degree days 3287 3473  
Cooling Degree Days 0 0  
Month to date cooling degree days 0 0  
Year to date cooling degree days 0 0  
Moisture  
Dew Point 51 °F    
Average Humidity 89    
Maximum Humidity 100    
Minimum Humidity 78    
Precipitation  
Precipitation 1.28 in 0.06 in 1.63 in (1982)
Month to date precipitation 1.88 1.14  
Year to date precipitation 1.88 1.14  
Sea Level Pressure  
Sea Level Pressure 29.58 in    
Wind  
Wind Speed 12 mph (West)    
Max Wind Speed 87 mph    
Max Gust Speed 130 mph    
Visibility 5 miles    
Events Rain , Thunderstorm    
T = Trace of Precipitation, MM = Missing Value Source: NWS Daily Summary

Daily Weather History Graph

Daily Weather History Graph

Search for Another Location

Airport:

Trip Planner

Search our weather history database for the weather conditions in past years. The results will help you decide how hot, cold, wet, or windy it might be!

Date:

Astronomy

Jan. 29, 2013 Rise Set
Actual Time 7:21 AM CST 5:25 PM CST
Civil Twilight 6:52 AM CST 5:54 PM CST
Nautical Twilight 6:19 AM CST 6:27 PM CST
Astronomical Twilight 5:47 AM CST 6:59 PM CST
Moon 8:22 PM CST (1/29) 8:18 AM CST (1/29)
Length of Visible Light 11h 02m
Length of Day
10h 04m
Waning Gibbous, 93% of the Moon is Illuminated
Jan 29
Waning Gibbous
Feb 3
Last Quarter
Feb 10
New
Feb 17
First Quarter
Feb 25
Full

Hourly Weather History & Observations

Time (CST) Temp. Windchill Dew Point Humidity Pressure Visibility Wind Dir Wind Speed Gust Speed Precip Events Conditions
12:55 AM 62.1 °F - 55.9 °F 80% 29.68 in 10.0 mi SSW 17.3 mph 24.2 mph N/A   Clear
1:55 AM 63.0 °F - 57.0 °F 81% 29.66 in 10.0 mi South 18.4 mph 27.6 mph N/A   Scattered Clouds
2:55 AM 62.1 °F - 57.0 °F 84% 29.65 in 10.0 mi SSW 16.1 mph 23.0 mph N/A   Mostly Cloudy
3:34 AM 62.6 °F - 57.2 °F 82% 29.65 in 7.0 mi SSW 18.4 mph 27.6 mph 0.00 in Rain , Thunderstorm Light Rain
3:55 AM 62.1 °F - 57.0 °F 84% 29.63 in 10.0 mi SSW 21.9 mph 32.2 mph 0.03 in Rain Light Rain
4:02 AM 60.8 °F - 55.4 °F 82% 29.63 in 10.0 mi South 11.5 mph 26.5 mph N/A Thunderstorm Mostly Cloudy
4:19 AM 60.8 °F - 57.2 °F 88% 29.62 in 10.0 mi South 10.4 mph - N/A   Mostly Cloudy
4:55 AM 62.1 °F - 57.9 °F 86% 29.62 in 10.0 mi SSW 11.5 mph 23.0 mph N/A   Partly Cloudy
5:55 AM 63.0 °F - 57.9 °F 84% 29.62 in 10.0 mi SSW 19.6 mph 29.9 mph N/A   Partly Cloudy
6:20 AM 62.6 °F - 57.2 °F 82% 29.62 in 10.0 mi SSW 18.4 mph 33.4 mph N/A   Mostly Cloudy
6:48 AM 62.6 °F - 57.2 °F 82% 29.62 in 10.0 mi SSW 16.1 mph 28.8 mph N/A   Scattered Clouds
6:55 AM 61.0 °F - 57.0 °F 87% 29.62 in 10.0 mi SSW 16.1 mph 27.6 mph N/A   Partly Cloudy
7:55 AM 61.0 °F - 57.0 °F 87% 29.60 in 10.0 mi South 11.5 mph 20.7 mph N/A   Mostly Cloudy
8:26 AM 60.8 °F - 57.2 °F 88% 29.59 in 10.0 mi South 11.5 mph - N/A   Mostly Cloudy
8:39 AM 60.8 °F - 57.2 °F 88% 29.59 in 10.0 mi SSW 10.4 mph - N/A   Mostly Cloudy
8:55 AM 60.1 °F - 57.0 °F 90% 29.60 in 10.0 mi SSW 10.4 mph - N/A   Mostly Cloudy
9:43 AM 60.8 °F - 57.2 °F 88% 29.59 in 5.0 mi SSW 8.1 mph - 0.00 in Rain , Thunderstorm Light Rain
9:55 AM 59.0 °F - 57.0 °F 93% 29.60 in 2.5 mi SSW 9.2 mph - 0.03 in Rain , Thunderstorm Rain
10:16 AM 60.8 °F - 57.2 °F 88% 29.62 in 3.0 mi SSW 12.7 mph - 0.07 in Rain , Thunderstorm Light Rain
10:22 AM 60.8 °F - 57.2 °F 88% 29.62 in 2.5 mi SW 16.1 mph 27.6 mph 0.07 in Rain Light Rain
10:39 AM 59.0 °F - 57.2 °F 94% 29.63 in 2.5 mi SW 15.0 mph 24.2 mph 0.15 in Rain Rain
10:48 AM 57.2 °F - 53.6 °F 88% 29.63 in 1.8 mi SW 12.7 mph 29.9 mph N/A Rain Rain
10:55 AM 55.9 °F - 54.0 °F 93% 29.63 in 2.0 mi SW 9.2 mph - 0.24 in Rain Rain
11:04 AM 55.4 °F - 53.6 °F 94% 29.63 in 5.0 mi SW 10.4 mph - 0.02 in Rain Light Rain
11:19 AM 55.4 °F - 53.6 °F 94% 29.62 in 2.5 mi SW 8.1 mph - 0.06 in Rain Rain
11:31 AM 55.4 °F - 53.6 °F 94% 29.62 in 3.0 mi SW 6.9 mph - 0.11 in Rain Rain
11:45 AM 55.4 °F - 53.6 °F 94% 29.62 in 4.0 mi SW 5.8 mph - 0.14 in Rain Light Rain
11:51 AM 55.4 °F - 53.6 °F 94% 29.62 in 3.0 mi WSW 3.5 mph - 0.14 in Rain , Thunderstorm Light Rain
11:55 AM 54.0 °F - 54.0 °F 100% 29.62 in 2.5 mi West 3.5 mph - 0.16 in Rain , Thunderstorm Rain
11:59 AM 53.6 °F - 53.6 °F 100% 29.60 in 1.8 mi Variable 3.5 mph - 0.01 in Rain , Thunderstorm Rain
12:10 PM 53.6 °F - 53.6 °F 100% 29.59 in 2.0 mi NW 5.8 mph - 0.05 in Rain Rain
12:14 PM 53.6 °F - 53.6 °F 100% 29.58 in 2.5 mi NNW 5.8 mph - 0.07 in Rain , Thunderstorm Thunderstorms and Rain
12:33 PM 51.8 °F - 51.8 °F 100% 29.57 in 2.5 mi NW 5.8 mph - 0.10 in Rain Light Rain
12:51 PM 51.8 °F - 50.0 °F 94% 29.56 in 2.0 mi NNE 4.6 mph - 0.15 in Rain Rain
12:55 PM 50.0 °F - 50.0 °F 100% 29.56 in 1.8 mi North 4.6 mph - 0.18 in Rain Rain
1:09 PM 50.0 °F - 50.0 °F 100% 29.55 in 2.0 mi NNW 5.8 mph - 0.04 in Rain Rain
1:17 PM 50.0 °F - 48.2 °F 94% 29.56 in 2.0 mi NNW 5.8 mph - 0.07 in Rain Rain
1:25 PM 48.2 °F - 48.2 °F 100% 29.56 in 1.5 mi NNW 6.9 mph - 0.12 in Rain Rain
1:34 PM 48.2 °F - 48.2 °F 100% 29.54 in 2.0 mi North 5.8 mph - 0.17 in Rain Rain
1:55 PM 46.9 °F - 46.9 °F 100% 29.53 in 2.0 mi North 9.2 mph - 0.24 in Rain Rain
2:08 PM 46.4 °F 40.1 °F 46.4 °F 100% 29.53 in 3.0 mi NE 15.0 mph 26.5 mph 0.03 in Rain Rain
2:40 PM 46.4 °F - 44.6 °F 93% 29.48 in 4.0 mi North - - 0.09 in Rain Light Rain
2:55 PM 46.0 °F - 45.0 °F 96% 29.49 in 3.0 mi North - - 0.10 in Rain Light Rain
3:03 PM 46.4 °F 43.5 °F 44.6 °F 93% 29.48 in 3.0 mi NNE 5.8 mph - 0.01 in Rain Light Rain
3:20 PM 46.4 °F 42.9 °F 44.6 °F 93% 29.48 in 5.0 mi NE 6.9 mph - 0.02 in Rain Light Rain
3:55 PM 46.0 °F 39.6 °F 46.0 °F 100% 29.54 in 2.0 mi NNE 15.0 mph 25.3 mph 0.04 in Rain Rain
4:24 PM 44.6 °F 40.7 °F 44.6 °F 100% 29.51 in 4.0 mi NNE 6.9 mph - 0.04 in Rain Light Rain
4:55 PM 45.0 °F 41.2 °F 44.1 °F 97% 29.52 in 3.0 mi North 6.9 mph - 0.08 in Rain Light Rain
5:45 PM 41.0 °F 33.5 °F 39.2 °F 93% 29.50 in 8.0 mi NNE 13.8 mph - 0.04 in Rain Light Rain
5:55 PM 41.0 °F 34.7 °F 39.9 °F 96% 29.51 in 8.0 mi North 10.4 mph - 0.04 in Rain Light Rain
6:55 PM 37.0 °F 28.5 °F 36.0 °F 96% 29.53 in 6.0 mi North 13.8 mph 20.7 mph 0.03 in Rain Light Rain
7:55 PM 36.0 °F 29.0 °F 35.1 °F 97% 29.57 in 5.0 mi North 9.2 mph - 0.00 in Rain Light Rain
8:55 PM 35.1 °F 25.9 °F 35.1 °F 100% 29.53 in 4.0 mi North 13.8 mph - 0.04 in Rain Light Rain
9:55 PM 35.1 °F 26.9 °F 35.1 °F 100% 29.55 in 4.0 mi North 11.5 mph - 0.03 in Rain Light Rain
10:55 PM 34.0 °F 23.8 °F 34.0 °F 100% 29.50 in 6.0 mi North 16.1 mph 19.6 mph 0.03 in Rain Light Rain
11:55 PM 34.0 °F 26.0 °F 33.1 °F 96% 29.51 in 5.0 mi North 10.4 mph - 0.01 in Rain Light Rain